Temp
-15 -15 -15 -15 -15 -14 -14 -14 -14 -15 -15 -16 -15 -14 -14 -14 -13 -14 -14 -14 -13 -13 -13 -13 -13 -13 -13 -13 -13 -13 -13 -13 -13 -14 -13 -13 -13 -13
-16 -16 -15 -15 -15 -15 -15 -15 -14 -14 -14 -16 -16 -15 -15 -14 -13 -14 -14 -14 -14 -14 -14 -13 -13 -13 -13 -13 -13 -13 -13 -13 -13 -12 -15 -14 -14 -13
-16 -16 -16 -16 -16 -15 -15 -15 -14 -14 -14 -15 -15 -15 -16 -15 -15 -14 -13 -14 -14 -14 -14 -14 -14 -14 -14 -13 -13 -13 -13 -13 -13 -13 -15 -14 -14 -14
-18 -18 -17 -17 -17 -16 -16 -16 -15 -15 -14 -14 -16 -16 -15 -16 -16 -15 -15 -14 -14 -14 -14 -14 -14 -14 -14 -14 -13 -13 -13 -13 -13 -13 -14 -14 -14 -14
-19 -19 -19 -18 -18 -18 -17 -17 -17 -16 -15 -15 -15 -16 -16 -16 -16 -16 -16 -16 -15 -14 -14 -14 -14 -14 -14 -14 -14 -14 -13 -13 -13 -14 -14 -14 -14 -14
-21 -20 -20 -20 -20 -20 -19 -19 -18 -18 -18 -17 -16 -17 -17 -17 -17 -17 -16 -16 -16 -15 -15 -14 -15 -15 -15 -14 -14 -14 -14 -13 -14 -14 -13 -13 -14 -14
-22 -22 -22 -22 -22 -22 -22 -22 -21 -21 -21 -21 -20 -19 -20 -20 -19 -18 -17 -17 -17 -16 -15 -15 -14 -14 -15 -15 -15 -14 -14 -14 -13 -14 -14 -13 -14 -15
-24 -24 -23 -23 -23 -23 -23 -23 -23 -23 -22 -22 -22 -21 -21 -21 -21 -21 -20 -19 -19 -17 -17 -16 -15 -15 -15 -15 -15 -15 -14 -14 -13 -14 -14 -13 -14 -15
-25 -25 -25 -25 -24 -24 -24 -24 -23 -23 -23 -23 -22 -22 -22 -22 -21 -21 -21 -20 -20 -19 -19 -18 -16 -15 -15 -15 -15 -15 -15 -14 -14 -14 -14 -14 -14 -14
-26 -26 -26 -25 -25 -25 -25 -25 -25 -25 -25 -24 -24 -24 -23 -23 -23 -22 -21 -21 -20 -20 -20 -20 -19 -17 -15 -15 -15 -15 -15 -15 -14 -14 -14 -14 -14 -14
-27 -27 -26 -26 -26 -26 -25 -26 -27 -28 -28 -28 -28 -28 -27 -27 -27 -26 -24 -22 -21 -21 -20 -20 -21 -19 -18 -16 -15 -15 -15 -15 -15 -14 -14 -14 -14 -14
-28 -27 -27 -27 -26 -27 -27 -28 -29 -29 -29 -29 -29 -29 -29 -29 -29 -29 -28 -27 -25 -24 -22 -20 -20 -21 -19 -18 -16 -15 -15 -15 -15 -14 -15 -15 -15 -14
-28 -29 -28 -28 -28 -28 -29 -29 -29 -29 -29 -28 -28 -28 -29 -29 -29 -30 -30 -29 -28 -27 -27 -22 -21 -21 -20 -19 -17 -16 -15 -15 -15 -15 -15 -15 -15 -14
-28 -29 -29 -29 -29 -30 -30 -29 -29 -29 -29 -29 -28 -28 -29 -29 -29 -30 -30 -30 -30 -29 -30 -26 -24 -21 -21 -20 -19 -18 -17 -16 -15 -15 -15 -15 -15 -14
-29 -29 -29 -30 -30 -30 -30 -29 -29 -29 -29 -29 -29 -29 -29 -30 -30 -30 -30 -30 -30 -31 -31 -29 -27 -25 -23 -21 -20 -19 -19 -17 -16 -15 -15 -15 -15 -14
-29 -30 -29 -30 -30 -31 -30 -29 -30 -29 -29 -29 -29 -30 -30 -30 -30 -30 -30 -30 -30 -31 -31 -31 -30 -27 -25 -23 -21 -21 -19 -18 -16 -16 -15 -15 -15 -15
-31 -30 -30 -31 -31 -31 -30 -30 -30 -30 -30 -30 -30 -30 -31 -31 -31 -31 -31 -31 -31 -31 -32 -32 -31 -30 -27 -25 -22 -21 -21 -19 -18 -16 -16 -16 -16 -15
-31 -31 -31 -31 -31 -31 -31 -30 -30 -30 -30 -30 -30 -31 -31 -31 -32 -32 -31 -31 -31 -31 -32 -32 -32 -31 -29 -26 -24 -22 -22 -20 -20 -17 -16 -16 -16 -15
-32 -32 -32 -32 -31 -31 -31 -31 -31 -31 -31 -31 -31 -31 -31 -32 -32 -32 -32 -32 -32 -32 -32 -32 -32 -32 -31 -29 -26 -23 -22 -22 -20 -19 -17 -16 -16 -15
-32 -32 -32 -32 -32 -31 -31 -31 -31 -31 -31 -31 -31 -31 -31 -32 -32 -32 -32 -32 -32 -32 -32 -32 -32 -32 -32 -31 -28 -25 -23 -23 -21 -20 -18 -16 -16 -15
-33 -33 -32 -32 -32 -32 -31 -31 -31 -31 -31 -31 -31 -31 -32 -32 -32 -33 -33 -33 -33 -33 -32 -32 -32 -33 -32 -32 -29 -26 -25 -23 -22 -20 -19 -17 -16 -16
-33 -33 -33 -33 -32 -32 -32 -31 -31 -31 -31 -31 -31 -32 -32 -32 -33 -33 -34 -34 -34 -33 -33 -33 -33 -33 -33 -32 -30 -28 -26 -25 -23 -21 -20 -19 -17 -16
-33 -33 -33 -33 -32 -32 -32 -32 -31 -31 -32 -31 -32 -32 -32 -33 -33 -34 -34 -34 -34 -34 -34 -33 -33 -33 -33 -33 -32 -30 -27 -26 -24 -22 -21 -20 -19 -18
Height
5658 5658 5659 5660 5661 5662 5663 5664 5667 5671 5673 5672 5673 5678 5680 5685 5690 5694 5698 5702 5704 5706 5711 5716 5721 5724 5727 5728 5729 5732 5736 5735 5736 5738 5735 5740 5742 5745
5640 5640 5640 5641 5641 5642 5644 5645 5648 5651 5656 5657 5657 5659 5664 5668 5671 5676 5682 5686 5691 5695 5698 5702 5708 5713 5717 5720 5724 5727 5730 5729 5730 5732 5729 5735 5738 5741
5619 5619 5618 5619 5620 5620 5621 5623 5625 5628 5633 5637 5641 5642 5642 5648 5654 5658 5663 5668 5673 5680 5685 5690 5695 5700 5705 5710 5713 5719 5721 5722 5724 5725 5724 5727 5731 5737
5597 5597 5596 5597 5597 5597 5599 5600 5602 5603 5607 5612 5615 5619 5623 5622 5630 5638 5643 5649 5654 5660 5668 5674 5680 5687 5693 5698 5703 5708 5712 5715 5719 5721 5720 5722 5725 5730
5573 5573 5573 5572 5573 5573 5574 5575 5576 5577 5580 5585 5589 5590 5596 5601 5603 5610 5619 5627 5634 5640 5648 5657 5663 5669 5677 5684 5690 5696 5702 5707 5711 5711 5714 5715 5719 5722
5552 5551 5550 5549 5548 5549 5549 5549 5550 5551 5552 5556 5561 5564 5567 5571 5579 5582 5589 5600 5609 5617 5627 5637 5645 5652 5660 5668 5676 5682 5688 5692 5697 5702 5707 5711 5711 5717
5531 5529 5528 5527 5527 5526 5526 5526 5527 5527 5528 5529 5533 5536 5542 5543 5548 5555 5563 5568 5581 5590 5601 5612 5624 5634 5643 5650 5660 5668 5676 5683 5689 5695 5701 5705 5706 5712
5511 5510 5510 5510 5508 5508 5507 5507 5507 5506 5506 5506 5508 5512 5515 5518 5521 5526 5534 5544 5552 5563 5572 5587 5598 5610 5622 5633 5642 5652 5662 5672 5677 5683 5689 5695 5700 5704
5494 5494 5493 5492 5491 5490 5490 5489 5488 5486 5486 5486 5488 5488 5489 5492 5497 5503 5505 5516 5527 5532 5544 5559 5569 5584 5598 5612 5623 5634 5646 5656 5665 5672 5679 5687 5691 5696
5480 5479 5478 5477 5475 5475 5474 5470 5467 5464 5462 5461 5462 5463 5464 5466 5469 5474 5480 5487 5499 5510 5513 5531 5541 5557 5571 5587 5602 5616 5628 5640 5650 5659 5666 5676 5682 5687
5466 5464 5463 5461 5459 5458 5456 5452 5449 5446 5443 5440 5440 5440 5440 5442 5445 5449 5454 5460 5470 5481 5489 5501 5517 5526 5543 5558 5576 5594 5608 5622 5634 5644 5653 5663 5671 5678
5451 5449 5446 5445 5443 5440 5437 5434 5432 5430 5427 5426 5425 5424 5423 5424 5425 5427 5432 5436 5442 5451 5460 5475 5488 5500 5516 5530 5550 5568 5585 5601 5616 5630 5640 5650 5660 5666
5437 5434 5431 5428 5425 5422 5420 5418 5416 5414 5411 5410 5409 5408 5407 5408 5409 5410 5412 5415 5419 5427 5434 5446 5456 5474 5488 5506 5523 5541 5560 5579 5595 5611 5623 5634 5646 5654
5423 5420 5417 5414 5410 5407 5404 5403 5400 5397 5395 5394 5393 5392 5391 5391 5392 5394 5397 5399 5402 5408 5413 5421 5434 5447 5463 5482 5498 5514 5534 5554 5572 5591 5606 5618 5631 5641
5408 5406 5403 5400 5396 5393 5390 5388 5385 5383 5382 5381 5379 5378 5377 5376 5376 5379 5382 5384 5387 5390 5395 5401 5411 5419 5436 5456 5474 5489 5508 5530 5550 5570 5588 5601 5614 5626
5393 5391 5388 5385 5382 5380 5377 5375 5372 5370 5369 5368 5366 5365 5363 5363 5364 5363 5366 5369 5372 5375 5379 5384 5391 5399 5414 5431 5449 5467 5483 5508 5528 5548 5566 5582 5598 5611
5377 5375 5372 5370 5368 5366 5364 5362 5359 5358 5357 5355 5353 5352 5350 5350 5350 5350 5351 5352 5357 5361 5364 5368 5375 5381 5393 5408 5428 5446 5463 5486 5506 5526 5545 5564 5581 5595
5364 5362 5360 5357 5355 5353 5351 5348 5346 5345 5344 5343 5341 5339 5338 5337 5337 5337 5337 5338 5342 5346 5351 5355 5360 5367 5377 5392 5408 5424 5442 5459 5482 5503 5525 5544 5563 5578
5350 5348 5346 5344 5342 5340 5338 5336 5335 5333 5332 5330 5329 5327 5326 5325 5324 5323 5323 5324 5329 5333 5338 5342 5347 5354 5364 5376 5386 5402 5421 5436 5461 5484 5505 5524 5545 5560
5337 5335 5334 5331 5330 5328 5325 5323 5322 5322 5320 5319 5317 5315 5314 5312 5311 5311 5310 5312 5315 5319 5324 5329 5335 5342 5350 5360 5368 5383 5401 5418 5439 5465 5485 5506 5526 5543
5324 5322 5320 5319 5317 5316 5314 5312 5310 5309 5308 5307 5305 5303 5301 5300 5299 5298 5297 5298 5301 5305 5310 5316 5322 5326 5335 5345 5357 5370 5385 5400 5421 5447 5466 5488 5507 5526
5312 5310 5308 5307 5305 5303 5302 5300 5299 5298 5297 5295 5294 5292 5290 5287 5286 5285 5284 5285 5287 5291 5296 5301 5306 5313 5324 5334 5345 5354 5367 5381 5402 5425 5448 5469 5490 5505
5298 5297 5296 5294 5292 5291 5289 5288 5286 5286 5284 5283 5282 5281 5278 5276 5274 5273 5272 5271 5273 5277 5282 5287 5293 5301 5311 5321 5332 5341 5353 5367 5386 5408 5430 5449 5469 5487
Wind_Speed
60 60 61 62 63 62 62 63 62 61 60 62 63 61 61 61 60 58 57 55 55 55 53 48 44 42 40 37 33 32 31 28 23 27 26 31 35 27
67 67 68 68 69 69 69 69 68 68 65 66 67 67 66 65 65 64 63 61 58 57 57 55 52 48 44 40 37 36 34 30 27 25 32 31 31 27
72 73 74 74 75 75 75 75 75 75 73 73 72 73 74 72 71 70 69 67 66 64 61 59 56 54 51 47 42 41 39 34 29 26 28 30 39 33
76 78 79 79 80 81 81 82 82 83 81 80 80 79 79 82 79 78 76 74 72 70 66 64 62 59 56 53 48 44 42 39 35 28 30 33 33 40
79 80 81 81 82 83 83 83 83 85 86 87 86 84 81 81 84 82 82 81 80 77 73 68 66 64 60 58 54 50 46 46 39 31 29 27 32 37
78 77 77 76 76 77 78 79 80 81 82 85 87 85 84 82 84 85 83 82 83 84 81 77 73 69 67 62 59 55 51 46 43 36 32 27 30 35
72 71 71 70 70 69 69 69 71 73 74 76 79 81 79 80 80 81 84 85 82 82 84 85 81 76 72 69 65 60 55 52 49 42 37 34 39 34
60 60 59 59 60 62 63 64 65 67 68 70 72 74 74 76 77 78 80 80 82 82 82 84 87 85 79 75 72 67 61 56 54 48 40 36 36 38
50 51 51 51 52 54 55 58 62 66 68 71 72 74 75 77 77 77 77 77 78 82 81 81 87 90 87 82 77 73 67 62 58 53 45 42 38 37
43 43 45 48 51 53 55 58 61 63 66 70 71 71 73 74 76 78 81 82 79 76 82 80 83 88 92 90 84 80 75 69 63 58 52 46 41 42
43 46 48 49 50 52 54 56 57 56 56 58 59 60 62 65 65 69 73 80 81 80 80 80 78 85 91 95 93 87 82 76 69 64 59 51 47 48
45 46 47 48 50 51 53 51 47 46 49 51 51 52 52 52 52 53 56 66 73 75 77 82 80 83 87 95 97 95 89 82 76 70 65 58 54 51
44 44 46 48 50 51 49 46 46 49 51 52 52 52 52 51 49 50 49 51 60 65 67 78 82 82 86 89 98 99 96 90 81 75 71 64 58 54
43 44 45 47 47 49 47 45 47 49 46 44 42 43 46 50 50 49 47 47 48 54 58 68 74 81 85 88 92 100 98 95 88 81 77 70 63 59
43 44 44 44 45 45 44 45 45 43 43 42 40 40 41 42 45 46 47 46 47 45 51 59 65 74 80 87 92 97 99 97 94 88 82 77 69 66
44 43 43 42 43 42 42 43 41 41 41 38 38 39 40 39 39 42 43 44 42 45 47 53 57 66 75 82 93 96 101 98 97 93 87 81 74 71
43 43 44 43 42 42 40 40 39 39 39 37 37 36 37 36 37 40 41 43 43 43 44 49 53 59 66 76 90 96 102 101 99 96 92 86 80 76
43 42 42 42 41 40 40 40 38 38 37 36 35 36 35 35 35 37 40 41 41 41 41 47 52 54 58 66 85 96 102 104 102 99 95 91 84 81
42 40 40 40 39 39 39 38 37 38 38 37 36 35 35 35 34 35 38 41 40 40 41 46 53 53 53 57 76 93 100 107 104 102 99 95 88 86
39 37 37 37 37 38 39 37 36 36 36 35 35 36 35 35 33 33 36 40 41 41 43 44 51 54 52 52 67 86 96 104 107 105 102 99 93 91
36 37 37 36 37 37 37 36 35 35 34 33 33 34 35 35 34 33 35 37 41 43 45 46 47 55 55 52 60 77 88 98 108 107 105 103 99 96
37 37 37 37 36 36 36 35 34 35 34 33 32 32 33 34 32 32 34 36 40 44 46 48 51 55 55 53 54 69 84 92 104 110 107 104 102 100
40 38 37 36 35 36 35 34 34 34 33 33 33 32 33 33 32 31 32 35 38 42 46 49 53 53 56 55 52 61 76 86 96 110 108 106 105 103
Wind_Direction
268 268 267 266 265 264 263 262 260 257 257 259 260 259 259 258 255 254 253 251 251 253 254 252 250 249 253 258 265 265 267 265 271 287 243 246 231 235
268 268 268 268 268 266 265 263 261 260 257 258 259 258 255 256 257 256 253 252 250 248 249 251 251 249 248 251 254 259 260 262 266 276 274 233 231 234
269 270 270 269 269 268 267 266 265 263 260 258 256 257 259 255 252 252 253 252 250 249 249 247 247 248 247 247 249 251 257 259 264 260 286 240 225 232
270 270 270 269 269 268 267 266 265 265 262 260 260 257 254 257 254 253 251 249 251 250 247 247 246 244 243 244 244 246 250 254 254 257 249 249 231 228
275 274 274 274 274 273 272 271 270 268 265 262 262 264 262 258 258 255 251 249 248 248 248 245 244 246 243 241 242 242 244 247 248 248 244 267 221 228
278 276 275 274 273 272 272 271 270 268 267 265 263 263 263 261 258 257 256 250 247 246 245 245 243 241 242 240 238 239 241 245 248 247 248 261 242 216
275 274 274 273 273 272 271 271 270 268 268 266 264 261 261 260 258 254 252 253 249 244 243 243 241 241 238 240 238 236 236 238 241 241 239 243 252 233
273 272 271 271 271 271 271 271 271 270 268 267 266 265 263 261 259 257 254 249 249 246 241 239 239 239 237 235 237 236 233 233 236 239 238 240 239 228
272 271 272 272 272 273 273 272 272 272 271 269 267 266 263 261 259 258 256 252 246 245 242 237 235 235 236 234 232 234 233 230 231 235 235 234 234 241
270 271 273 275 276 276 277 276 276 275 274 272 269 266 263 261 260 257 255 253 249 244 243 236 234 230 230 231 230 229 230 228 227 229 232 230 230 235
277 277 278 279 279 281 280 279 278 277 276 274 273 272 270 268 264 258 256 252 250 246 243 239 231 231 226 225 227 227 227 226 224 224 227 227 227 225
281 280 280 282 284 284 284 281 279 274 271 272 273 273 271 270 269 264 257 252 250 247 242 239 234 230 226 224 222 224 225 225 222 220 224 221 222 219
282 283 286 287 286 286 281 278 276 278 277 275 273 271 269 267 267 266 262 255 248 246 244 237 235 228 225 223 222 220 222 223 221 219 221 220 218 218
283 285 286 286 284 283 280 281 281 281 278 277 275 272 268 266 264 262 262 260 255 246 242 238 233 229 223 220 221 219 217 219 220 218 219 219 214 216
285 286 285 283 280 280 280 281 282 279 278 279 276 274 271 267 264 262 259 259 256 250 243 239 233 229 223 216 217 219 217 214 217 217 217 218 212 213
286 287 285 282 281 283 281 285 279 278 279 279 279 278 273 269 265 261 258 254 254 250 248 236 234 230 223 216 213 214 218 212 213 215 215 216 212 212
288 289 287 285 284 284 283 281 275 276 277 276 279 281 278 272 265 261 258 254 251 248 247 235 231 230 225 216 211 211 216 212 209 211 212 212 212 211
283 283 281 278 281 282 284 281 276 276 276 275 277 279 279 276 269 261 257 254 248 244 243 234 230 230 226 217 211 209 211 214 207 206 208 210 209 209
281 280 278 277 281 281 283 278 272 274 275 277 278 278 278 277 272 266 258 254 249 243 238 233 229 231 228 219 212 209 208 213 208 205 205 207 207 208
281 278 277 277 282 281 283 278 273 272 274 275 278 279 279 278 275 268 260 253 249 243 236 233 229 229 229 223 215 209 208 209 210 205 203 203 205 207
281 281 278 277 281 280 281 276 273 273 273 275 278 278 279 279 276 272 265 255 246 240 236 231 228 226 226 224 215 211 209 208 210 205 204 202 203 207
280 282 277 276 279 280 281 276 271 272 272 274 276 280 282 280 279 272 268 257 246 238 234 229 227 225 224 224 216 213 209 209 208 207 204 202 201 205
281 281 276 275 279 280 280 279 271 271 273 274 276 280 282 282 279 274 268 259 246 238 233 230 227 224 221 222 217 213 210 209 207 207 205 204 201 203